[TLELIST] Archives

 

Current TLEs

April 11th 2007 PDT

HST 1 20580U 90037B 07099.81957269 +.00000472 +00000-0 +23836-4 0 08512 2 20580 028.4679 275.9452 0003567 092.9224 267.1770 15.00220697729680 ISS (ZARYA) 1 25544U 98067A 07100.56489780 .00014454 00000-0 83988-4 0 9960 2 25544 051.6347 093.3468 0016014 052.3831 049.1810 15.78648763480094 CXO 1 25867U 99040B 07098.33333333 .00000433 00000-0 00000+0 0 550 2 25867 061.4727 090.8175 6133451 285.2591 280.3679 00.37805173 1990 ____________________________________________________________________ These 2-Line ...Continue Reading

Current TLEs

April 10th 2007 PDT

HST 1 20580U 90037B 07097.89031412 +.00000533 +00000-0 +28660-4 0 08452 2 20580 028.4680 288.5231 0003505 071.7873 288.3097 15.00220002729399 ISS (ZARYA) 1 25544U 98067A 07100.31697973 .00014718 00000-0 85480-4 0 9937 2 25544 051.6343 094.6275 0015907 052.3317 079.3330 15.78642313480052 CXO 1 25867U 99040B 07098.33333333 .00000433 00000-0 00000+0 0 550 2 25867 061.4727 090.8175 6133451 285.2591 280.3679 00.37805173 1990 ____________________________________________________________________ These 2-Line ...Continue Reading

Current TLEs

April 9th 2007 PDT

HST 1 20580U 90037B 07095.69494925 +.00000553 +00000-0 +30204-4 0 08459 2 20580 028.4680 302.8345 0003463 048.4371 311.6513 15.00218481729067 ISS (ZARYA) 1 25544U 98067A 07099.48538314 .00015542 00000-0 90114-4 0 9885 2 25544 051.6341 098.9280 0016022 048.6900 033.7646 15.78620216479924 CXO 1 25867U 99040B 07098.33333333 .00000433 00000-0 00000+0 0 550 2 25867 061.4727 090.8175 6133451 285.2591 280.3679 00.37805173 1990 ____________________________________________________________________ These 2-Line ...Continue Reading

Current TLEs

April 8th 2007 PDT

HST 1 20580U 90037B 07095.02968663 .00000553 00000-0 30218-4 0 8445 2 20580 028.4680 307.1711 0003464 041.3743 318.7107 15.00217966728960 ISS (ZARYA) 1 25544U 98067A 07098.48201731 .00016367 00000-0 94810-4 0 9810 2 25544 051.6346 104.1185 0015947 045.0019 091.4956 15.78591116479763 CXO 1 25867U 99040B 07098.33333333 .00000433 00000-0 00000+0 0 550 2 25867 061.4727 090.8175 6133451 285.2591 280.3679 00.37805173 1990 ____________________________________________________________________ These 2-Line ...Continue Reading

Current TLEs

April 7th 2007 PDT

HST 1 20580U 90037B 07095.02968663 .00000553 00000-0 30218-4 0 8445 2 20580 028.4680 307.1711 0003464 041.3743 318.7107 15.00217966728960 ISS (ZARYA) 1 25544U 98067A 07097.46892755 .00017708 00000-0 10237-3 0 9752 2 25544 051.6334 109.3544 0016053 040.5991 094.7521 15.78561243479609 CXO 1 25867U 99040B 07096.29166667 .00000411 00000-0 00000+0 0 542 2 25867 061.4626 090.8468 6129419 285.3083 002.3920 00.37805156 1980 ____________________________________________________________________ These 2-Line ...Continue Reading

Current TLEs

April 6th 2007 PDT

HST 1 20580U 90037B 07094.96316038 +.00000553 +00000-0 +30218-4 0 08530 2 20580 028.4680 307.6048 0003464 040.6680 319.4168 15.00217914728957 ISS (ZARYA) 1 25544U 98067A 07 96.43226362 .00018676 00000-0 10397-3 0 9700 2 25544 051.6320 114.7205 0016107 035.8509 324.4101 15.78524665479446 CXO 1 25867U 99040B 07096.29166667 .00000411 00000-0 00000+0 0 542 2 25867 061.4626 090.8468 6129419 285.3083 002.3920 00.37805156 1980 ____________________________________________________________________ These 2-Line ...Continue Reading

Current TLEs

April 5th 2007 PDT

HST 1 20580U 90037B 07095.02968663 .00000553 00000-0 30218-4 0 8445 2 20580 028.4680 307.1711 0003464 041.3743 318.7107 15.00217966728960 ISS (ZARYA) 1 25544U 98067A 07095.44584390 .00018791 00000-0 10871-3 0 9635 2 25544 051.6340 119.8196 0016104 032.5138 118.5024 15.78490888479289 CXO 1 25867U 99040B 07096.29166667 .00000411 00000-0 00000+0 0 542 2 25867 061.4626 090.8468 6129419 285.3083 002.3920 00.37805156 1980 ____________________________________________________________________ These 2-Line ...Continue Reading

Current TLEs

April 4th 2007 PDT

HST 1 20580U 90037B 07093.89873990 .00000533 00000-0 28626-4 0 8433 2 20580 028.4682 314.5452 0003458 028.3824 331.6957 15.00216966728791 ISS (ZARYA) 1 25544U 98067A 07094.48834007 .00023866 00000-0 13712-3 0 9569 2 25544 051.6334 124.7685 0016023 029.1526 077.1677 15.78460659479134 CXO 1 25867U 99040B 07093.62500000 .00000373 00000-0 00000+0 0 535 2 25867 061.4470 090.8836 6125369 285.3767 359.2990 00.37805889 1978 ____________________________________________________________________ These 2-Line ...Continue Reading

Current TLEs

April 3rd 2007 PDT

HST 1 20580U 90037B 07091.96947527 +.00000512 +00000-0 +26968-4 0 08598 2 20580 028.4683 327.1224 0003464 007.0208 353.0432 15.00215449728506 ISS (ZARYA) 1 25544U 98067A 07093.48146306 .00026736 00000-0 15343-3 0 9501 2 25544 051.6334 129.9738 0015823 024.8706 116.1298 15.78415689478976 CXO 1 25867U 99040B 07093.62500000 .00000373 00000-0 00000+0 0 535 2 25867 061.4470 090.8836 6125369 285.3767 359.2990 00.37805889 1978 ____________________________________________________________________ These 2-Line ...Continue Reading

Current TLEs

April 2nd 2007 PDT

HST 1 20580U 90037B 07091.96947527 .00000512 00000-0 26968-4 0 8420 2 20580 028.4683 327.1224 0003464 007.0208 353.0432 15.00215449728506 ISS (ZARYA) 1 25544U 98067A 07092.46842008 .00021101 00000-0 12234-3 0 9440 2 25544 051.6330 135.2121 0015938 020.1780 120.6018 15.78350759478815 CXO 1 25867U 99040B 07091.00000000 .00000325 00000-0 00000+0 0 526 2 25867 061.4327 090.9287 6122673 285.4386 001.8694 00.37805796 1960 ____________________________________________________________________ These 2-Line ...Continue Reading
  • This mailing list is a public mailing list - anyone may join or leave, at any time.
  • This mailing list is announce-only.

International Space Station (ISS) / Hubble Space Telescope (HST) / Chandra X-Ray Observatory Orbital Data via EMAIL

Privacy Policy:

Private list